Wind_Speed
32 30 28 27 26 25 24 23 21 18 17 15 14 12 11 9 9 9 8 8 9 9 10 9 7 4 2 4 6 6 5 4 5 5 4 3 5 6 6 9 10 13 13
36 32 30 30 29 27 27 25 22 21 19 18 16 14 12 11 10 10 9 9 9 10 10 10 6 4 9 11 6 4 5 3 5 6 3 3 5 5 5 7 6 7 11
36 34 32 33 31 30 28 26 26 25 23 21 20 17 16 14 13 11 10 10 10 10 11 11 8 11 8 3 5 8 8 1 4 4 4 7 7 4 8 8 7 8 9
36 35 34 34 34 33 31 29 29 28 26 24 22 20 19 17 14 12 11 12 11 12 12 11 10 12 9 5 10 10 6 5 7 4 6 8 9 10 8 6 6 7 7
35 36 36 36 36 36 34 33 32 30 28 27 25 24 22 19 16 15 13 14 12 13 13 14 13 12 11 12 11 11 10 12 10 10 9 8 7 7 7 6 5 5 5
34 35 36 37 37 38 37 36 34 32 31 29 28 26 24 22 19 18 16 15 15 15 15 17 17 15 15 15 15 15 14 13 15 12 10 8 7 8 8 8 8 8 8
34 33 35 38 39 41 39 37 36 35 34 32 29 26 25 24 22 22 20 19 18 18 18 18 18 17 16 16 16 13 11 16 12 10 11 11 10 10 11 11 11 11 10
28 32 32 36 40 41 40 39 39 38 36 36 35 28 19 25 25 26 24 23 20 21 20 19 19 18 19 20 20 21 19 15 13 12 11 11 11 11 11 11 10 10 10
24 26 30 33 38 40 40 41 41 42 43 41 39 27 13 13 18 25 26 26 24 23 23 22 21 20 21 22 20 21 18 17 15 13 12 11 10 10 10 10 10 10 10
24 28 30 32 34 39 41 42 43 44 44 44 41 40 34 21 15 13 21 26 27 25 25 24 23 22 24 23 20 20 19 18 16 14 12 11 11 11 10 10 11 11 12
16 18 24 29 30 35 39 41 44 46 47 47 47 45 42 29 24 25 21 24 26 26 27 26 25 24 26 24 21 20 20 19 17 15 14 13 12 11 10 11 11 12 13
11 11 14 21 28 30 36 39 42 45 46 48 48 48 48 46 37 30 26 25 25 26 28 29 29 29 28 27 24 22 22 21 20 17 16 14 13 12 11 12 12 13 13
9 14 13 14 18 24 30 35 39 43 45 47 49 50 49 49 48 43 38 28 27 28 28 30 31 32 31 31 29 24 23 23 23 20 18 17 15 15 14 14 14 14 14
10 13 15 16 16 18 21 28 35 39 42 46 47 49 51 50 48 48 45 38 31 29 33 31 32 33 33 34 31 27 26 25 25 23 20 19 18 17 16 16 15 15 13
13 12 14 17 18 17 18 21 28 35 38 42 45 46 50 51 50 48 48 47 39 33 37 36 35 32 33 33 32 30 28 28 27 25 23 22 20 18 18 17 16 15 15
18 16 16 15 16 18 18 20 23 27 33 36 40 44 46 48 51 51 51 50 48 45 43 37 37 36 32 33 33 32 31 31 30 27 25 23 22 20 19 17 17 16 16
22 22 21 19 17 16 16 20 22 23 27 32 34 37 42 44 48 52 53 52 51 49 47 40 39 36 35 33 33 34 35 35 32 30 28 27 25 23 20 18 18 18 17
21 24 24 23 23 21 19 19 20 21 25 30 32 35 37 38 43 47 50 53 53 52 51 46 44 43 40 36 34 35 38 38 36 34 32 31 28 25 22 20 19 18 18
23 24 26 26 25 24 24 24 24 21 23 27 29 32 36 36 40 43 48 52 52 51 52 52 47 48 45 41 38 38 39 40 39 38 35 33 31 26 23 22 21 19 19
33 30 28 28 28 28 26 25 25 27 28 28 29 30 32 36 39 41 44 50 51 52 51 55 55 51 50 48 43 41 43 44 45 42 38 36 33 29 26 24 23 21 20
40 40 40 36 33 32 32 31 29 27 28 30 33 33 33 35 37 40 43 46 49 52 51 54 58 57 56 53 52 49 46 44 45 45 41 41 38 35 30 27 25 23 22
43 45 46 46 45 42 37 36 35 35 33 33 33 34 36 36 36 39 41 45 48 52 53 54 57 63 64 62 56 53 47 48 49 48 46 45 43 39 33 31 28 26 24
45 45 45 47 50 49 47 45 41 41 40 39 37 36 36 36 37 39 39 41 47 53 55 52 56 61 61 67 62 56 53 52 52 48 49 49 46 43 36 33 30 28 26
52 54 54 53 53 53 53 52 51 49 48 47 44 41 40 39 38 38 39 41 43 48 55 56 58 57 57 58 63 60 57 52 52 47 44 44 46 45 39 34 32 29 28
57 59 60 62 63 62 58 58 57 54 55 55 53 49 45 43 42 37 39 43 44 49 49 50 57 55 55 54 55 51 56 54 54 52 49 46 43 42 40 37 33 31 29
54 56 63 65 65 68 66 63 60 51 54 60 60 57 53 49 44 41 39 41 46 51 47 47 51 54 54 53 56 57 55 59 58 48 54 47 44 41 33 38 35 32 28
Wind_Direction
246 243 242 239 237 234 232 230 223 223 225 227 229 232 238 245 255 265 267 268 267 263 264 266 262 264 101 126 133 159 217 280 294 292 304 279 268 262 255 245 249 245 241
248 248 242 239 237 236 234 233 228 227 227 228 231 236 243 249 257 263 267 267 264 264 261 262 242 186 194 192 191 180 237 292 268 280 243 222 230 244 235 239 240 238 238
247 248 243 239 239 239 235 233 229 228 229 230 232 235 240 244 248 253 261 263 265 260 254 237 176 182 173 212 188 207 249 314 232 267 199 189 205 217 227 224 217 224 229
248 248 243 239 240 241 239 235 232 231 232 233 235 236 239 243 248 253 256 261 261 257 252 248 252 248 247 164 191 216 238 240 243 267 222 220 216 220 238 229 216 220 225
250 249 247 242 239 241 240 238 234 234 235 234 234 235 239 241 245 249 252 258 260 256 247 238 230 230 228 219 208 224 251 248 262 255 256 259 261 259 260 256 242 238 236
253 249 248 245 241 241 239 237 235 233 234 234 235 237 241 242 243 248 248 251 250 253 247 243 241 236 234 235 227 238 249 252 251 260 265 260 254 253 255 256 251 244 242
257 253 250 246 244 243 242 240 236 231 229 228 230 231 235 240 241 244 246 249 249 250 249 242 243 239 237 231 224 224 209 243 257 252 242 238 238 237 238 239 240 242 245
253 258 254 248 246 246 242 239 237 231 229 230 226 229 233 239 239 242 244 247 247 248 248 243 241 239 236 236 234 234 245 267 268 262 251 245 244 246 250 253 254 256 260
247 255 257 253 251 250 248 245 241 236 233 231 231 223 210 225 233 237 239 242 245 246 245 245 242 236 236 237 240 249 259 261 267 266 262 259 257 257 260 266 269 270 266
255 256 255 260 255 255 251 247 245 242 239 237 232 229 230 231 207 214 237 241 244 245 245 244 239 234 238 241 243 248 254 254 254 251 248 249 253 256 260 264 266 264 263
280 270 260 259 256 254 256 253 248 244 241 240 239 238 230 228 230 233 229 234 238 241 243 240 239 237 239 246 246 247 251 251 247 244 244 244 247 252 257 261 265 267 268
294 292 274 260 256 254 253 255 255 252 249 246 243 241 240 233 226 229 232 235 239 242 246 248 244 240 240 247 249 248 248 247 244 244 245 245 247 249 253 257 262 265 267
298 305 298 283 270 260 255 257 256 256 253 251 248 247 245 242 244 245 243 242 240 238 235 241 244 243 242 247 247 247 246 243 240 240 239 239 240 241 245 251 257 260 262
297 279 278 286 287 279 265 257 258 258 257 255 252 250 250 249 245 245 245 238 235 237 237 242 246 247 245 244 247 247 243 241 236 236 236 236 236 239 244 249 252 255 257
355 330 302 289 282 278 277 269 260 257 259 260 257 253 251 252 251 248 248 245 240 240 239 242 243 247 246 245 244 242 242 239 236 234 235 235 237 242 248 253 254 253 251
350 346 342 332 311 294 280 273 268 264 260 260 261 259 255 252 253 252 250 249 247 246 250 253 252 252 250 247 244 238 236 234 232 234 234 234 236 240 244 249 253 255 254
346 344 340 336 331 323 305 284 275 269 266 266 263 261 261 259 255 254 252 250 247 244 245 248 251 249 246 245 243 239 233 233 229 231 233 232 233 236 240 244 248 251 252
334 333 333 333 330 326 319 307 292 280 272 269 268 266 264 261 258 258 256 254 250 246 244 240 243 245 241 243 244 239 235 232 228 229 231 232 233 234 238 244 248 252 255
328 326 324 324 324 323 320 315 306 296 283 275 271 266 265 263 261 258 256 256 254 251 244 241 239 243 244 241 238 235 232 232 229 228 231 234 235 236 238 243 245 248 250
322 321 317 315 315 315 315 312 308 304 296 289 281 274 270 264 261 260 256 254 254 253 248 243 241 241 242 240 237 232 228 228 229 228 231 233 236 237 239 242 245 249 251
311 310 310 309 308 306 306 307 306 303 300 296 289 284 276 269 265 261 258 257 252 249 249 246 240 237 235 231 230 231 229 232 231 229 230 234 234 235 235 238 241 245 249
303 304 303 302 301 300 300 300 301 301 299 296 294 292 288 283 275 263 257 256 256 252 247 241 242 240 238 237 235 232 227 226 225 226 229 231 233 233 232 235 237 237 242
303 301 299 299 298 297 295 295 293 293 294 293 293 292 291 287 284 282 269 256 250 251 250 247 244 245 240 240 237 233 230 232 236 235 230 232 230 232 228 231 234 236 237
299 297 295 293 291 290 292 292 291 290 288 288 289 289 290 289 286 281 277 269 258 250 245 246 245 248 248 251 249 245 243 238 234 233 229 229 229 228 227 226 230 233 235
295 292 290 289 288 285 282 284 286 285 284 282 283 283 284 286 285 283 276 270 268 263 253 243 246 246 246 246 250 243 234 228 225 227 225 227 225 227 224 222 223 228 231
289 290 291 289 288 287 283 280 280 281 279 279 278 278 279 280 282 282 274 266 265 264 257 256 243 237 237 240 242 244 242 233 229 225 225 219 220 216 213 217 218 220 224
Height
1525 1528 1531 1533 1535 1537 1539 1541 1543 1545 1547 1548 1549 1550 1550 1550 1551 1551 1551 1551 1551 1552 1552 1552 1552 1552 1553 1554 1555 1555 1553 1553 1553 1553 1553 1554 1555 1556 1557 1557 1558 1560 1561
1521 1524 1527 1529 1531 1533 1536 1538 1540 1542 1544 1545 1546 1548 1548 1548 1549 1549 1549 1549 1550 1550 1550 1550 1551 1551 1551 1552 1552 1553 1551 1551 1551 1551 1551 1552 1553 1554 1554 1555 1555 1557 1557
1517 1520 1523 1525 1527 1530 1533 1535 1537 1539 1541 1542 1544 1545 1546 1546 1547 1547 1547 1547 1547 1547 1547 1548 1549 1550 1549 1550 1550 1550 1549 1550 1548 1548 1549 1549 1551 1552 1551 1551 1552 1553 1553
1512 1514 1517 1520 1524 1525 1528 1531 1533 1535 1537 1539 1541 1542 1543 1543 1544 1544 1544 1543 1544 1544 1544 1546 1546 1546 1547 1548 1548 1548 1548 1548 1547 1547 1548 1548 1548 1549 1550 1550 1550 1550 1551
1508 1510 1512 1515 1518 1520 1523 1525 1528 1531 1533 1535 1536 1538 1539 1540 1541 1540 1541 1540 1540 1541 1542 1542 1542 1543 1544 1546 1547 1546 1546 1545 1545 1545 1546 1547 1548 1548 1549 1549 1549 1549 1549
1504 1505 1507 1510 1512 1514 1517 1519 1522 1525 1527 1529 1530 1532 1534 1535 1536 1536 1537 1538 1538 1538 1539 1539 1539 1540 1541 1542 1543 1543 1543 1543 1543 1543 1544 1545 1545 1546 1546 1547 1546 1546 1547
1499 1502 1503 1504 1506 1507 1511 1514 1516 1518 1520 1524 1526 1528 1527 1528 1530 1531 1533 1534 1535 1535 1536 1537 1537 1538 1539 1539 1540 1541 1541 1539 1540 1541 1541 1541 1542 1542 1543 1543 1543 1544 1544
1495 1496 1499 1500 1500 1502 1506 1508 1510 1512 1515 1516 1518 1522 1524 1525 1524 1524 1526 1528 1530 1531 1531 1532 1533 1534 1534 1535 1537 1537 1536 1538 1539 1538 1538 1538 1539 1539 1540 1540 1541 1541 1542
1491 1492 1494 1495 1495 1496 1500 1503 1505 1506 1506 1508 1511 1516 1516 1516 1519 1520 1521 1522 1523 1525 1526 1528 1529 1530 1530 1531 1532 1533 1534 1535 1536 1537 1537 1537 1537 1538 1538 1539 1539 1539 1540
1487 1486 1487 1489 1490 1490 1492 1495 1498 1501 1502 1503 1505 1508 1507 1507 1507 1512 1515 1517 1518 1519 1521 1522 1524 1526 1525 1526 1528 1529 1531 1532 1532 1533 1533 1533 1534 1535 1536 1537 1537 1537 1538
1481 1483 1483 1483 1484 1484 1486 1489 1490 1491 1493 1496 1497 1501 1503 1503 1502 1503 1503 1506 1509 1512 1515 1517 1519 1521 1521 1522 1524 1525 1526 1528 1529 1529 1530 1530 1531 1532 1533 1533 1534 1535 1535
1473 1475 1477 1478 1478 1479 1478 1480 1483 1484 1486 1488 1490 1493 1494 1496 1496 1497 1498 1499 1501 1502 1504 1507 1511 1514 1514 1516 1519 1520 1522 1523 1526 1526 1527 1527 1528 1529 1529 1530 1531 1532 1532
1471 1470 1469 1471 1471 1473 1474 1474 1475 1476 1478 1480 1481 1483 1486 1489 1492 1493 1494 1495 1495 1496 1496 1497 1500 1503 1507 1510 1511 1514 1516 1518 1520 1522 1522 1523 1525 1525 1526 1526 1527 1528 1528
1469 1468 1465 1464 1464 1466 1467 1468 1468 1469 1470 1471 1474 1475 1477 1480 1484 1486 1487 1489 1489 1489 1490 1491 1492 1495 1497 1499 1504 1508 1510 1512 1514 1517 1518 1519 1520 1521 1522 1522 1522 1523 1524
1467 1464 1463 1461 1459 1458 1460 1461 1461 1462 1462 1463 1465 1468 1468 1471 1475 1478 1480 1480 1483 1481 1481 1483 1487 1488 1489 1492 1495 1498 1503 1507 1509 1511 1513 1514 1516 1517 1517 1518 1518 1518 1519
1465 1462 1460 1457 1456 1454 1453 1453 1454 1454 1454 1455 1455 1458 1460 1462 1464 1466 1470 1471 1473 1474 1474 1478 1479 1481 1484 1485 1487 1490 1493 1498 1503 1506 1507 1509 1511 1511 1512 1512 1513 1514 1515
1464 1461 1458 1455 1453 1451 1449 1447 1446 1445 1446 1447 1448 1447 1448 1453 1454 1456 1458 1462 1464 1465 1465 1468 1471 1474 1474 1477 1479 1483 1485 1489 1494 1498 1501 1502 1503 1504 1506 1506 1506 1507 1508
1461 1459 1456 1452 1450 1445 1444 1444 1441 1437 1437 1438 1439 1439 1437 1440 1441 1445 1448 1448 1452 1457 1459 1458 1458 1462 1464 1467 1470 1474 1477 1480 1484 1488 1492 1495 1497 1497 1499 1500 1499 1500 1501
1457 1454 1453 1450 1446 1443 1439 1439 1437 1430 1429 1430 1428 1428 1427 1429 1430 1432 1435 1436 1440 1444 1449 1450 1448 1450 1454 1458 1460 1462 1467 1472 1476 1478 1482 1487 1490 1491 1492 1492 1492 1493 1493
1451 1449 1448 1445 1440 1439 1437 1436 1431 1425 1423 1421 1419 1417 1417 1418 1418 1420 1423 1425 1428 1430 1437 1439 1440 1440 1442 1445 1449 1450 1453 1458 1464 1469 1473 1476 1482 1484 1483 1484 1484 1485 1486
1444 1441 1438 1437 1435 1431 1430 1426 1426 1421 1416 1413 1411 1408 1407 1406 1407 1408 1412 1414 1416 1418 1420 1423 1427 1427 1427 1431 1430 1437 1441 1449 1452 1457 1461 1464 1468 1473 1474 1474 1475 1477 1480
1437 1432 1429 1427 1422 1422 1419 1417 1416 1412 1407 1404 1401 1399 1397 1395 1395 1398 1398 1402 1404 1407 1405 1407 1410 1410 1412 1416 1422 1426 1432 1437 1438 1441 1447 1451 1456 1461 1465 1468 1468 1467 1470
1427 1422 1418 1415 1409 1407 1407 1407 1406 1402 1396 1393 1389 1388 1386 1384 1383 1382 1386 1389 1390 1393 1393 1396 1395 1394 1403 1402 1410 1414 1417 1424 1425 1428 1433 1437 1444 1452 1454 1456 1460 1462 1461
1415 1410 1406 1404 1399 1396 1394 1393 1392 1388 1384 1380 1378 1376 1374 1372 1372 1373 1372 1372 1373 1375 1377 1383 1380 1383 1389 1394 1397 1402 1408 1414 1416 1418 1419 1423 1432 1438 1445 1444 1447 1452 1456
1401 1396 1392 1386 1382 1379 1381 1378 1376 1372 1367 1365 1364 1363 1362 1360 1360 1361 1360 1358 1357 1355 1358 1362 1368 1374 1378 1382 1386 1393 1393 1398 1399 1400 1405 1411 1419 1428 1434 1434 1436 1441 1446
1385 1380 1372 1369 1364 1359 1358 1360 1360 1356 1350 1347 1347 1346 1346 1346 1347 1348 1346 1345 1343 1340 1345 1347 1350 1356 1363 1367 1370 1372 1377 1380 1387 1387 1388 1401 1407 1414 1421 1423 1426 1429 1435